EW3770 Weather Reports


time (UTC)temp
F
wind
direction
speed
knots
gust
knots
rain 1hr
in
rain 24hr
in
rain mn
in
humidity
%
barometer
mb
20260507142703 54 360 3.5 8.7 0.00 0.00 0.00 45 1027.4
20260507141803 54 360 3.5 7.8 0.00 0.00 0.00 44 1027.4
20260507140903 54 360 3.5 8.7 0.00 0.00 0.00 43 1027.4
20260507140003 54 360 3.5 7.8 0.00 0.00 0.00 45 1027.4
20260507135424 54 360 3.5 7.8 0.00 0.00 0.00 46 1027.4
20260507134503 53 360 3.5 8.7 0.00 0.00 0.00 51 1027.4
20260507133603 52 360 3.5 8.7 0.00 0.00 0.00 52 1027.4
20260507132724 51 360 3.5 7.8 0.00 0.00 0.00 56 1027.4
20260507131824 50 360 3.5 7.8 0.00 0.00 0.00 58 1027.4
20260507130903 50 360 4.3 8.7 0.00 0.00 0.00 57 1027.4
20260507130024 50 360 3.5 8.7 0.00 0.00 0.00 57 1027.4
20260507125403 50 360 3.5 7.0 0.00 0.00 0.00 56 1027.4
20260507124503 50 360 2.6 7.0 0.00 0.00 0.00 56 1027.4
20260507123603 50 360 2.6 7.8 0.00 0.00 0.00 54 1027.4
20260507122705 50 360 2.6 5.2 0.00 0.00 0.00 52 1027.4
20260507121803 50 360 2.6 5.2 0.00 0.00 0.00 52 1027.4
20260507120903 50 360 2.6 8.7 0.00 0.00 0.00 51 1027.4
20260507120024 50 360 2.6 5.2 0.00 0.00 0.00 52 1027.4
20260507115403 50 360 2.6 5.2 0.00 0.00 0.00 55 1027.4
20260507114503 50 360 3.5 7.8 0.00 0.00 0.00 57 1027.4
20260507113603 50 360 2.6 7.0 0.00 0.00 0.00 58 1027.4
20260507112703 50 360 3.5 7.8 0.00 0.00 0.00 58 1027.4
20260507111803 50 360 2.6 7.0 0.00 0.00 0.00 59 1027.4
20260507110903 50 360 2.6 7.0 0.00 0.00 0.00 58 1027.4
20260507110003 50 360 3.5 7.8 0.00 0.00 0.00 58 1027.4
20260507105403 51 360 2.6 7.8 0.00 0.00 0.00 57 1027.4
20260507104524 51 360 2.6 7.8 0.00 0.00 0.00 57 1027.4
20260507103624 51 360 2.6 8.7 0.00 0.00 0.00 55 1027.4
20260507102703 51 360 3.5 7.0 0.00 0.00 0.00 55 1027.4
20260507101803 51 360 2.6 7.8 0.00 0.01 0.00 53 1027.4
20260507100903 52 360 3.5 7.8 0.00 0.01 0.00 52 1027.4
20260507100004 52 360 2.6 7.8 0.00 0.01 0.00 51 1027.4
20260507095403 52 360 2.6 7.8 0.00 0.01 0.00 50 1027.4
20260507094504 52 360 2.6 5.2 0.00 0.01 0.00 51 1027.4
20260507093624 52 360 2.6 7.0 0.00 0.01 0.00 54 1027.4
20260507092724 52 360 2.6 7.0 0.00 0.01 0.00 54 1027.4
20260507091803 52 360 2.6 7.0 0.00 0.01 0.00 54 1027.4
20260507090904 52 360 1.7 5.2 0.00 0.01 0.00 52 1027.4
20260507090004 52 360 2.6 5.2 0.00 0.02 0.00 51 1027.4
20260507085403 52 360 2.6 5.2 0.00 0.02 0.00 50 1027.4
20260507084503 52 360 2.6 5.2 0.00 0.05 0.00 50 1027.4
20260507083604 52 360 2.6 5.2 0.00 0.09 0.00 49 1027.4
20260507082703 52 360 2.6 5.2 0.00 0.11 0.00 48 1027.4
20260507081803 53 360 2.6 7.8 0.00 0.11 0.00 47 1027.4
20260507080924 53 360 1.7 4.3 0.00 0.11 0.00 48 1027.4
20260507080004 53 360 1.7 4.3 0.00 0.11 0.00 48 1027.4
20260507075403 53 360 1.7 4.3 0.00 0.11 0.00 48 1027.4
20260507074504 53 360 1.7 4.3 0.00 0.11 0.00 49 1027.4
20260507073603 54 360 1.7 4.3 0.00 0.11 0.00 49 1027.4
20260507072724 54 360 1.7 5.2 0.00 0.11 0.00 48 1027.4
20260507071825 54 360 1.7 4.3 0.00 0.11 0.00 46 1027.4
20260507070903 54 360 1.7 5.2 0.00 0.11 0.00 45 1027.4
20260507070008 54 360 0.9 3.5 0.00 0.11 0.00 45 1027.4
20260507065403 54 360 0.9 3.5 0.00 0.11 0.00 44 1027.4
20260507064503 54 360 0.9 4.3 0.00 0.11 0.00 43 1027.4
20260507063603 54 360 0.9 4.3 0.00 0.11 0.00 43 1027.4
20260507062724 54 360 0.9 4.3 0.00 0.11 0.00 43 1027.4
20260507061803 54 360 0.9 2.6 0.00 0.11 0.00 43 1027.4
20260507060903 54 360 0.0 2.6 0.00 0.11 0.00 42 1027.4
20260507060004 54 360 0.9 2.6 0.00 0.11 0.00 40 1027.4
20260507055403 54 360 0.9 2.6 0.00 0.11 0.11 40 1027.4
20260507054503 54 360 0.0 0.9 0.00 0.11 0.11 39 1027.4
20260507053624 54 360 0.0 0.9 0.00 0.11 0.11 39 1027.4
20260507052703 53 360 0.0 1.7 0.00 0.11 0.11 38 1027.4
20260507051824 53 0 0.0 0.0 0.00 0.11 0.11 40 1027.4
20260507050925 53 360 0.0 0.9 0.00 0.11 0.11 40 1027.4
20260507050003 53 360 0.0 0.9 0.00 0.11 0.11 39 1027.4
20260507045403 53 360 0.0 2.6 0.00 0.11 0.11 40 1027.4
20260507044503 54 360 0.0 2.6 0.00 0.11 0.11 37 1027.4
20260507043604 54 360 0.9 3.5 0.00 0.11 0.11 35 1027.4
20260507042703 54 360 1.7 4.3 0.00 0.11 0.11 35 1027.4
20260507041803 54 360 2.6 5.2 0.00 0.11 0.11 34 1027.4
20260507040903 54 360 1.7 4.3 0.00 0.11 0.11 35 1027.4
20260507040004 54 360 1.7 5.2 0.00 0.11 0.11 35 1027.4
20260507035403 55 360 1.7 7.0 0.00 0.11 0.11 35 1027.4
20260507034503 56 360 1.7 5.2 0.00 0.11 0.11 34 1027.4
20260507033603 56 360 0.9 3.5 0.00 0.11 0.11 33 1027.4
20260507032724 56 360 0.9 3.5 0.00 0.11 0.11 33 1027.4
20260507031824 57 360 0.0 0.9 0.00 0.11 0.11 34 1027.4
20260507030924 58 0 0.0 0.0 0.00 0.11 0.11 33 1027.4
20260507030003 59 0 0.0 0.0 0.00 0.11 0.11 29 1027.4
20260507025403 59 0 0.0 0.0 0.00 0.11 0.11 29 1027.4
20260507024503 60 0 0.0 0.0 0.00 0.11 0.11 27 1027.4
20260507023603 61 0 0.0 0.0 0.00 0.11 0.11 28 1027.4
20260507022703 62 0 0.0 0.0 0.00 0.11 0.11 27 1027.4
20260507021824 62 360 0.0 0.9 0.00 0.11 0.11 25 1027.4
20260507020903 62 360 0.0 0.9 0.00 0.11 0.11 25 1027.4
20260507020003 62 360 0.9 3.5 0.00 0.11 0.11 24 1027.4
20260507015403 62 1 0.9 3.5 0.00 0.11 0.11 24 1027.4
20260507014503 62 5 0.9 4.3 0.00 0.11 0.11 23 1027.4
20260507013624 62 15 1.7 5.2 0.00 0.11 0.11 23 1027.4
20260507012703 63 28 1.7 7.0 0.00 0.11 0.11 23 1027.4
20260507011803 63 355 1.7 5.2 0.00 0.11 0.11 22 1027.4
20260507010903 63 360 1.7 6.1 0.00 0.11 0.11 23 1027.4
20260507010003 63 16 1.7 7.8 0.00 0.11 0.11 23 1027.4
20260507005424 63 29 2.6 7.8 0.00 0.11 0.11 22 1027.4
20260507004503 64 359 3.5 8.7 0.00 0.11 0.11 22 1027.4
20260507003624 64 356 4.3 10.4 0.00 0.11 0.11 23 1027.4
20260507002703 64 358 4.3 10.4 0.00 0.11 0.11 22 1027.4
20260507001803 64 353 2.6 9.6 0.00 0.11 0.11 22 1027.4
20260507000903 64 358 5.2 13.9 0.00 0.11 0.11 22 1027.4
20260507000004 64 349 3.5 8.7 0.00 0.11 0.11 22 1027.4
20260506235403 64 354 4.3 13.9 0.00 0.11 0.11 21 1027.4
20260506234503 64 330 3.5 11.3 0.00 0.11 0.11 23 1027.4
20260506233603 64 319 4.3 11.3 0.00 0.11 0.11 23 1027.4
20260506232703 64 349 5.2 11.3 0.00 0.11 0.11 23 1027.4
20260506231803 64 358 4.3 11.3 0.00 0.11 0.11 23 1027.4
20260506230903 64 360 4.3 12.2 0.00 0.11 0.11 23 1027.4
20260506230024 64 360 5.2 11.3 0.00 0.11 0.11 24 1027.4
20260506225403 63 360 6.1 13.9 0.00 0.11 0.11 23 1027.4
20260506224503 64 355 4.3 12.2 0.00 0.11 0.11 23 1027.4
20260506223603 64 359 5.2 15.6 0.00 0.11 0.11 24 1027.4
20260506222703 63 360 5.2 15.6 0.00 0.11 0.11 25 1027.4
20260506221824 63 360 6.1 15.6 0.00 0.11 0.11 24 1027.4
20260506220903 63 360 5.2 14.8 0.00 0.11 0.11 24 1027.4
20260506220003 63 360 5.2 12.2 0.00 0.11 0.11 23 1027.4
20260506215403 63 360 6.1 13.9 0.00 0.11 0.11 24 1027.4
20260506214503 63 360 6.1 13.9 0.00 0.11 0.11 25 1027.4
20260506213624 63 360 6.1 13.9 0.00 0.11 0.11 25 1027.4
20260506212724 63 360 6.1 15.6 0.00 0.11 0.11 25 1027.4
20260506211803 62 360 4.3 14.8 0.00 0.11 0.11 26 1027.4
20260506210903 62 360 6.1 14.8 0.00 0.11 0.11 28 1027.4
20260506210003 62 360 6.1 14.8 0.00 0.11 0.11 26 1027.4
20260506205424 62 360 6.1 16.5 0.00 0.11 0.11 28 1027.4
20260506204503 61 360 6.1 14.8 0.00 0.11 0.11 27 1027.4
20260506203603 61 360 6.1 12.2 0.00 0.11 0.11 26 1027.4
20260506202703 61 360 5.2 13.9 0.00 0.11 0.11 28 1027.4
20260506201803 61 360 7.0 15.6 0.00 0.11 0.11 25 1027.4
20260506200903 61 360 5.2 12.2 0.00 0.11 0.11 27 1027.4
20260506200024 60 360 6.1 12.2 0.00 0.11 0.11 26 1027.4
20260506195403 60 360 6.1 12.2 0.00 0.11 0.11 26 1027.4
20260506194503 60 360 7.8 15.6 0.00 0.11 0.11 26 1027.4
20260506193603 59 360 8.7 15.6 0.00 0.11 0.11 25 1027.4
20260506192724 59 360 6.1 14.8 0.00 0.11 0.11 24 1027.4
20260506191803 59 360 6.1 14.8 0.00 0.11 0.11 24 1027.4
20260506190903 59 360 7.0 14.8 0.00 0.11 0.11 26 1027.4
20260506190004 58 360 8.7 17.4 0.00 0.11 0.11 26 1027.4
20260506185403 58 360 7.0 17.4 0.00 0.11 0.11 26 1027.4
20260506184503 58 360 7.0 13.9 0.00 0.11 0.11 25 1027.4
20260506183604 57 360 7.0 18.2 0.00 0.11 0.11 28 1027.4
20260506182703 57 360 7.0 14.8 0.00 0.11 0.11 27 1027.4
20260506181803 57 360 7.0 14.8 0.00 0.11 0.11 23 1027.4
20260506180903 57 360 8.7 16.5 0.00 0.11 0.11 24 1027.4
20260506180024 57 360 7.0 18.2 0.00 0.11 0.11 28 1027.4
20260506175403 57 360 6.1 15.6 0.00 0.11 0.11 29 1027.4
20260506174503 56 360 7.8 16.5 0.00 0.11 0.11 28 1027.4
20260506173603 56 360 7.0 16.5 0.00 0.11 0.11 28 1027.4
20260506172703 55 360 7.8 17.4 0.00 0.11 0.11 26 1027.4
20260506171803 55 360 7.8 17.4 0.00 0.11 0.11 29 1027.4
20260506170903 55 360 8.7 15.6 0.00 0.11 0.11 26 1027.4
20260506170003 55 360 7.0 13.9 0.00 0.11 0.11 27 1027.4
20260506165403 55 360 7.0 14.8 0.00 0.11 0.11 30 1027.4
20260506164503 55 360 7.8 18.2 0.00 0.11 0.11 29 1027.4
20260506163603 54 360 7.8 14.8 0.00 0.11 0.11 29 1027.4
20260506162724 54 360 7.0 14.8 0.00 0.11 0.11 31 1027.4
20260506161803 54 360 8.7 17.4 0.00 0.11 0.11 33 1027.4
20260506160903 54 343 8.7 16.5 0.00 0.11 0.11 35 1027.4
20260506160003 54 324 7.8 16.5 0.00 0.11 0.11 36 1027.4
20260506155424 53 346 7.8 17.4 0.00 0.11 0.11 37 1027.4
20260506154503 53 359 7.8 16.5 0.00 0.11 0.11 36 1027.4
20260506153603 52 337 7.8 13.9 0.00 0.11 0.11 37 1027.4
20260506152703 52 327 7.8 13.9 0.00 0.11 0.11 39 1027.4
20260506151803 52 332 7.8 15.6 0.00 0.11 0.11 36 1027.4
20260506150903 53 342 7.0 13.9 0.00 0.11 0.11 41 1027.4
20260506150003 53 351 5.2 12.2 0.00 0.11 0.11 44 1027.4
20260506145403 53 350 5.2 11.3 0.00 0.11 0.11 44 1027.4
20260506144503 52 350 4.3 10.4 0.00 0.11 0.11 46 1027.4
20260506143603 52 346 2.6 7.0 0.00 0.11 0.11 48 1027.4